Location: Newark
(52.3500°N, 175.9667°E)
Time: 22:26:54
(UTC+00:00)

Altair - Pass Details

Date: 23 April 2021
Orbit: 1501 x 1683 km, 47.2° (Epoch: 05 May)

Event Time Altitude Azimuth Distance (km) Brightness Sun altitude
Rises 23:44:41 0° 286° (WNW) 4,769 9.9 50.1°
Reaches altitude 10° 23:48:29 10° 274° (W) 3,753 9.6 50.2°
Maximum altitude 23:55:37 25° 225° (SW) 2,703 9.6 50.3°
Drops below altitude 10° 00:02:37 10° 174° (S) 3,659 10.4 50.5°
Sets 00:06:17 0° 162° (SSE) 4,626 10.6 50.5°
